Location: Mauries
(43.6188°N, 0.3322°W)
Time: 18:26:00
(UTC+00:00)

SJ-12 - Pass Details

Date: 14 January 2026
Orbit: 515 x 525 km, 97.8° (Epoch: 11 February)

Event Time Altitude Azimuth Distance (km) Brightness Sun altitude
Rises 06:46:38 0° 12° (NNE) 2,671 7.2 -8.3°
Reaches altitude 10° 06:48:45 10° 11° (NNE) 1,776 6.3 -7.9°
Maximum altitude 06:52:35 84° 286° (WNW) 534 3.7 -7.3°
Drops below altitude 10° 06:56:22 10° 196° (SSW) 1,754 6.5 -6.7°
Sets 06:58:27 0° 196° (SSW) 2,635 7.4 -6.3°
